Regional Weather Roundup
Issued by NWS

Home | Current Version | Previous Version | Graphics & Text | Print | Product List | Glossary On
Versions: 1 2 3 4 5 6 7 8 9 10 11 12 13 14 15 16 17 18 19 20 21 22 23 24 25 26 27 28 29 30 31 32 33 34 35 36 37 38 39 40 41 42 43 44 45 46 47 48 49 50
000
ASUS43 KLSX 041957
RWRMO

WEATHER SUMMARY FOR MISSOURI
NATIONAL WEATHER SERVICE SPRINGFIELD MO
200 PM CST SUN DEC 04 2016

NOTE: "FAIR" INDICATES FEW OR NO CLOUDS BELOW 12,000 FEET WITH NO
       SIGNIFICANT WEATHER AND/OR OBSTRUCTIONS TO VISIBILITY.
       CURRENT SKY AND/OR WEATHER CONDITIONS ARE NOT AVAILABLE FOR
       CHILLICOTHE AND FARMINGTON.

MOZ001>031-035>038-043-044-053-054-042100-
...NORTHERN AND WESTERN MISSOURI...

CITY           SKY/WX    TMP DP  RH WIND       PRES   REMARKS
KANSAS CTY INT PTSUNNY   42  35  76 NW7       29.96S
KANSAS C DTWN  MOSUNNY   45  38  76 W7        29.97S
ST JOSEPH      CLOUDY    39  35  86 NW9       29.96F
CHILLICOTHE      N/A     42  39  89 VRB5      29.95F

$$
MOZ066>068-077>081-088>096-101>105-042100-
...SOUTHWEST MISSOURI...

CITY           SKY/WX    TMP DP  RH WIND       PRES   REMARKS
SPRINGFIELD    CLOUDY    44  38  79 W9        29.98R
JOPLIN         PTSUNNY   46  40  79 NW7       30.01S
BRANSON        CLOUDY    45  41  87 NW5       30.00R

$$
MOZ032>034-039>042-045>050-055>058-069>072-042100-
...CENTRAL MISSOURI...

CITY           SKY/WX    TMP DP  RH WIND       PRES   REMARKS
COLUMBIA       NOT AVBL
JEFFERSON CITY CLOUDY    41  37  86 NW9       29.96F
ROLLA          CLOUDY    40  39  97 W7        29.93F
SEDALIA        CLOUDY    43  38  82 NW9       29.97F
WARRENSBURG    CLOUDY    43  36  75 W8        29.97F

$$
MOZ051-052-059>065-042100-
...EAST CENTRAL MISSOURI...

CITY           SKY/WX    TMP DP  RH WIND       PRES   REMARKS
ST LOUIS INTL  CLOUDY    40  35  83 W10       29.94F

$$
MOZ072>076-082>087-097>100-106>115-042100-
...SOUTH CENTRAL AND SOUTHEAST MISSOURI...

CITY           SKY/WX    TMP DP  RH WIND       PRES   REMARKS
CAPE GIRARDEAU LGT RAIN  44  41  89 SW7       29.95F FOG
FARMINGTON     CLOUDY    39  37  93 W9        29.95R
POPLAR BLUFF   LGT RAIN  43  41  93 W7        29.96F

$$


USA.gov is the U.S. government's official web portal to all federal, state and local government web resources and services.